Flag for Canada Weather past 2 weeks in Charlottetown, Prince Edward Island, Canada

Now
36 °F

Passing clouds.


Feels Like: 27 °F
Forecast: 33 / 36 °F
Wind: 12 mph from Northeast

Location: Charlottetown

Current Time: Apr 27, 2015 at 11:28:04 PM

Latest Report: Apr 27, 2015 at 11:00 PM


Visibility: 15 mi

Pressure: 29.65 "Hg

Humidity: 87%

Dew point: 32 °F

Location of CharlottetownLocation

Historic Weather in Charlottetown — Graph

°F

Charlottetown temperature yesterday

Maximum temperature yesterday: 36 °F (at 12:00 PM)
Minimum temperature yesterday: 27 °F (at 3:00 AM)
Average temperature yesterday: 32 °F

Past Weeks' High & Low Weather Summary

 TemperatureHumidityPressure
High50 °F (Apr 13, 2:00 PM)100% (Apr 13, 4:00 AM)30.38 "Hg (Apr 13, 4:00 AM)
Low23 °F (Apr 13, 4:00 AM)36% (Apr 20, 1:00 PM)29.34 "Hg (Apr 27, 8:00 AM)
Average36 °F80%29.90 "Hg
* Reported Apr 12 10:00 PM — Apr 27 10:00 PM, Charlottetown, Weather by CustomWeather, © 2015

Note: Actual official high and low records may vary slightly from our data, if they occured in-between our weather recording intervals... More about our weather records

Advertising

Charlottetown weather history for previous 24 hours

 ConditionsComfort  
Time TempWeatherWind HumidityBarometerVisibility
10:00 PM
Mon, Apr 27
36 °FOvercast.10 mph87%29.66 "Hg15 mi
9:00 PM36 °FOvercast.12 mph93%29.63 "Hg15 mi
8:00 PM36 °FOvercast.13 mph93%29.59 "Hg15 mi
7:49 PM36 °FOvercast.12 mph93%29.59 "Hg15 mi
7:00 PM37 °FOvercast.14 mph87%29.55 "Hg15 mi
6:00 PM37 °FOvercast.15 mph87%29.51 "Hg15 mi
5:00 PM39 °FMostly cloudy.16 mph81%29.48 "Hg15 mi
4:00 PM37 °FSprinkles. Overcast.16 mph87%29.45 "Hg15 mi
3:00 PM37 °FScattered showers. Mostly cloudy.10 mph93%29.42 "Hg15 mi
2:00 PM37 °FLow clouds.12 mph87%29.39 "Hg8 mi
1:00 PM36 °FDrizzle. Low clouds.18 mph93%29.38 "Hg10 mi
12:00 PM34 °FDrizzle. Fog.22 mph100%29.37 "Hg3 mi
11:50 AM34 °FDrizzle. Fog.22 mph100%29.37 "Hg6 mi
11:00 AM36 °FLight rain. Low clouds.20 mph93%29.36 "Hg12 mi
10:00 AM36 °FLight rain. Low clouds.22 mph93%29.35 "Hg8 mi
9:00 AM34 °FLight rain. Fog.13 mph100%29.34 "Hg2 mi
8:00 AM34 °FLight rain. Fog.10 mph100%29.34 "Hg2 mi
7:00 AM34 °FLight rain. Fog.6 mph100%29.36 "Hg1 mi
6:00 AM34 °FLight rain. Fog.7 mph93%29.38 "Hg2 mi
5:00 AM32 °FLight rain. Ice fog.9 mph100%29.39 "Hg2 mi
4:00 AM32 °FDrizzle. Ice fog.8 mph100%29.41 "Hg2 mi
3:00 AM32 °FLight rain. Ice fog.8 mph100%29.43 "Hg5 mi
2:00 AM32 °FLight rain. Ice fog.8 mph100%29.45 "Hg2 mi
1:00 AM32 °FSprinkles. Ice fog.7 mph100%29.46 "Hg2 mi
12:00 AM32 °FSprinkles. Ice fog.9 mph100%29.49 "Hg1 mi
11:00 PM
Sun, Apr 26
34 °FDrizzle. Fog.9 mph100%29.51 "Hg1 mi
Weather by CustomWeather, © 2015

See weather overviewHow to use our weather pages